Location: Buenos Aires
(34.6076°S, 58.4371°W)
Time: 13:25:35
(UTC-03:00)

Envisat - Pass Details

Date: 24 June 2021
Orbit: 764 x 766 km, 98.2° (Epoch: 03 August)

Event Time Altitude Azimuth Distance (km) Brightness Sun altitude
Rises 05:38:42 0° 9° (N) 3,217 6.5 -28.4°
Reaches altitude 10° 05:40:59 10° 7° (N) 2,299 5.6 -28.0°
Enters shadow 05:44:37 47° 352° (N) 1,013 3.5 -27.2°
